Skip Page Navigation
NASA JPL Caltech
NASA Logo - Jet Propulsion Laboratory + View the NASA Portal
+ Center for Near-Earth Object Studies
JPL Home Earth Solar System Stars & Galaxies Technology
JPL Solar System Dynamics
BODIES ORBITS EPHEMERIDES TOOLS PHYSICAL DATA DISCOVERY FAQ SITE MAP
IMPORTANT: The SSD Announcement email list is now available. Major changes are coming in the near future, including possible hostname and/or URL changes. To be notified of such changes, subscribe to this email list.

Please visit this page for more details.


JPL Small-Body Database Browser
Search: [ help ]  
27863 (1995 DZ5)
Classification: Main-belt Asteroid          SPK-ID: 2027863
Ephemeris | Orbit Diagram | Orbital Elements | Mission Design | Physical Parameters | Discovery Circumstances ]

[ show orbit diagram ]
Orbital Elements at Epoch 2458600.5 (2019-Apr-27.0) TDB
Reference: JPL 21 (heliocentric ecliptic J2000)
 Element Value Uncertainty (1-sigma)   Units 
e .1390500282006683 4.3951e-08  
a 2.643153998725166 1.1414e-08 au
q 2.275623360663723 1.1655e-07 au
i 1.536975750691843 5.1711e-06 deg
node 13.99009397274633 0.00014398 deg
peri 327.5128252080377 0.00014478 deg
M 49.77135382298945 1.4732e-05 deg
tp 2458383.500326154615
(2018-Sep-22.00032615)
6.3959e-05 TDB
period 1569.5751990627
4.30
1.0167e-05
2.784e-08
d
yr
n .2293614222593352 1.4857e-09 deg/d
Q 3.01068463678661 1.3001e-08 au
  Orbit Determination Parameters
   # obs. used (total)      764  
   data-arc span      9015 days (24.68 yr)  
   first obs. used      1995-02-06  
   last obs. used      2019-10-13  
   planetary ephem.      DE431  
   SB-pert. ephem.      SB431-N16  
   condition code      0  
   norm. resid. RMS      .55735  
   source      ORB  
   producer      Otto Matic  
   solution date      2019-Nov-07 05:02:42  

Additional Information
 Earth MOID = 1.26659 au 
 Jupiter MOID = 2.36763 au 
 T_jup = 3.380 
[ show covariance matrix ]

Ephemeris | Orbit Diagram | Orbital Elements | Mission Design | Physical Parameters | Discovery Circumstances ]

Physical Parameter Table
Parameter Symbol Value Units Sigma Reference Notes
absolute magnitude H 15.5   n/a MPO452560  

27863 (1995 DZ5)          Discovered 1995-Feb-24 by Spacewatch at Kitt Peak
Reference: 20010902/Numbers.arcLast Updated: 2004-04-19

Alternate Designations
 1995 DZ5 = 1999 BV29 
Ephemeris | Orbit Diagram | Orbital Elements | Mission Design | Physical Parameters | Discovery Circumstances ]
ABOUT SSD CREDITS/AWARDS PRIVACY/COPYRIGHT GLOSSARY LINKS
FirstGov 2019-Dec-07 14:26 UT
(server date/time)  
NASA Home Page
Site Manager:   Ryan S. Park
Webmaster  Alan B. Chamberlin